{"data":{"norad_id":69456,"intl_designator":"2026-127P","name":"STARLINK-37513","alt_names":[],"object_type":"PAYLOAD","status":"ACTIVE","operator":null,"country":"US","launch_date":"2026-06-08","launch_site_code":"AFETR","launch_vehicle":null,"mission":null,"orbit_class":"UNKNOWN","rcs_meters":null,"size_class":null,"mass_kg":null,"dimensions":null,"purposes":["comms"],"wikipedia_slug":null,"has_3d_model":false,"image_url":null,"decayed_at":null,"tle_current":{"epoch":"2026-09-20T00:57:21.331872Z","epoch_age_seconds":65255,"freshness":"FRESH","line1":"1 69456U 26127P   26263.03983023 -.00000198  00000+0  52708-5 0  9990","line2":"2 69456  53.1572 167.6946 0001422  74.4803 285.6357 15.34384915 16128","mean_motion":15.34384915,"eccentricity":0.0001422,"inclination_deg":53.1572,"raan_deg":167.6946,"arg_perigee_deg":74.4803,"mean_anomaly_deg":285.6357,"bstar":5.2708e-6,"rev_number":1612,"period_min":93.848680726896,"perigee_km":461.77530251559,"apogee_km":463.72085023131,"semimajor_km":6840.8850763735,"source":"CELESTRAK","updated_at":"2026-09-20T09:00:44.201280Z"}}}